DLH51 EDDW-EDDF

Flight info

Callsign DLH51
Flight time N/A
Altitude 19000
Route WIMCI1L WIMCI Y804 PIROT T152 KERAX KERAX5A
Aircraft A319/M-SDE3FGHIRWY/LB1

Departure

Time 2026-05-03 20:36
Airport Bremen Airport (EDDW)

Arrival

Time N/A
Airport Frankfurt Main Airport (EDDF)
Time Latitude Longitude Altitude Speed Heading
2026-05-03 20:15 53.05200 8.78466 18 ft 0 kts 37°
2026-05-03 20:26 53.05195 8.78459 18 ft 2 kts 37°
2026-05-03 20:26 53.05183 8.78444 18 ft 2 kts 37°
2026-05-03 20:27 53.05171 8.78429 17 ft 2 kts 37°
2026-05-03 20:27 53.05159 8.78413 16 ft 2 kts 57°
2026-05-03 20:27 53.05153 8.78390 15 ft 2 kts 82°
2026-05-03 20:27 53.05153 8.78365 15 ft 2 kts 107°
2026-05-03 20:28 53.05156 8.78353 15 ft 1 kts 122°
2026-05-03 20:28 53.05158 8.78347 15 ft 0 kts 117°
2026-05-03 20:30 53.05157 8.78352 15 ft 0 kts 116°
2026-05-03 20:30 53.05151 8.78370 15 ft 3 kts 118°
2026-05-03 20:30 53.05144 8.78391 15 ft 0 kts 122°
2026-05-03 20:31 53.05132 8.78419 15 ft 6 kts 128°
2026-05-03 20:31 53.05097 8.78481 15 ft 8 kts 134°
2026-05-03 20:31 53.05039 8.78557 13 ft 12 kts 142°
2026-05-03 20:32 53.04969 8.78648 11 ft 11 kts 160°
2026-05-03 20:32 53.04882 8.78666 9 ft 12 kts 154°
2026-05-03 20:32 53.04852 8.78806 9 ft 14 kts 87°
2026-05-03 20:32 53.04856 8.78980 12 ft 14 kts 89°
2026-05-03 20:33 53.04860 8.79155 13 ft 15 kts 88°
2026-05-03 20:33 53.04863 8.79335 15 ft 16 kts 89°
2026-05-03 20:33 53.04868 8.79529 18 ft 17 kts 88°
2026-05-03 20:33 53.04873 8.79745 21 ft 19 kts 89°
2026-05-03 20:34 53.04879 8.79965 21 ft 19 kts 88°
2026-05-03 20:34 53.04883 8.80188 21 ft 19 kts 88°
2026-05-03 20:34 53.04883 8.80379 20 ft 13 kts 103°
2026-05-03 20:34 53.04816 8.80463 18 ft 13 kts 176°
2026-05-03 20:35 53.04731 8.80404 18 ft 14 kts 242°
2026-05-03 20:35 53.04723 8.80323 18 ft 0 kts 270°
2026-05-03 20:35 53.04723 8.80321 18 ft 1 kts 270°
2026-05-03 20:36 53.04715 8.80001 19 ft 68 kts 266°
2026-05-03 20:36 53.04687 8.78779 10 ft 141 kts 267°
2026-05-03 20:36 53.04647 8.77058 573 ft 153 kts 267°
2026-05-03 20:36 53.04415 8.75408 1424 ft 153 kts 235°
2026-05-03 20:37 53.03543 8.74478 2254 ft 160 kts 207°
2026-05-03 20:37 53.02443 8.73875 2853 ft 176 kts 204°
2026-05-03 20:37 53.01236 8.73222 3423 ft 193 kts 204°
2026-05-03 20:37 52.99894 8.72563 3990 ft 213 kts 193°
2026-05-03 20:38 52.98321 8.72974 4452 ft 250 kts 156°
2026-05-03 20:38 52.96957 8.74958 5112 ft 274 kts 135°
2026-05-03 20:38 52.95701 8.77378 5968 ft 282 kts 134°
2026-05-03 20:38 52.94413 8.79806 6964 ft 284 kts 137°
2026-05-03 20:39 52.92889 8.81806 7932 ft 281 kts 155°
2026-05-03 20:39 52.91105 8.83025 8853 ft 281 kts 166°
2026-05-03 20:39 52.89236 8.83976 9526 ft 286 kts 168°
2026-05-03 20:39 52.87322 8.84906 10417 ft 290 kts 168°
2026-05-03 20:40 52.85357 8.85863 11041 ft 304 kts 168°
2026-05-03 20:40 52.83272 8.86891 11501 ft 322 kts 167°
2026-05-03 20:40 52.81072 8.87994 11910 ft 341 kts 167°
2026-05-03 20:40 52.78751 8.89168 12285 ft 358 kts 167°
2026-05-03 20:41 52.76333 8.90399 12883 ft 368 kts 166°
2026-05-03 20:41 52.73886 8.91645 13652 ft 371 kts 167°
2026-05-03 20:41 52.71429 8.92896 14406 ft 374 kts 167°
2026-05-03 20:41 52.68947 8.94153 15139 ft 377 kts 167°
2026-05-03 20:42 52.66441 8.95406 15837 ft 380 kts 167°
2026-05-03 20:42 52.63918 8.96659 16509 ft 383 kts 167°
2026-05-03 20:42 52.61374 8.97923 17172 ft 385 kts 167°
2026-05-03 20:42 52.58811 8.99197 17808 ft 388 kts 167°
2026-05-03 20:43 52.56227 9.00482 18400 ft 391 kts 167°
2026-05-03 20:43 52.53623 9.01775 18790 ft 392 kts 167°
2026-05-03 20:43 52.51020 9.03066 18921 ft 392 kts 167°
2026-05-03 20:43 52.48414 9.04359 18918 ft 391 kts 167°
2026-05-03 20:44 52.45810 9.05651 18931 ft 391 kts 167°
2026-05-03 20:44 52.43203 9.06941 18927 ft 391 kts 167°
2026-05-03 20:44 52.40597 9.08227 18933 ft 391 kts 167°
2026-05-03 20:44 52.37997 9.09467 18939 ft 390 kts 168°
2026-05-03 20:45 52.35377 9.10611 18942 ft 390 kts 169°
2026-05-03 20:45 52.32751 9.11738 18943 ft 391 kts 169°
2026-05-03 20:45 52.30126 9.12870 18945 ft 391 kts 169°
2026-05-03 20:45 52.27495 9.14008 18945 ft 392 kts 169°
2026-05-03 20:46 52.24861 9.15152 18944 ft 392 kts 169°
2026-05-03 20:46 52.22226 9.16299 18945 ft 392 kts 169°
2026-05-03 20:46 52.19600 9.17442 18946 ft 392 kts 169°
2026-05-03 20:46 52.16964 9.18591 18947 ft 393 kts 169°
2026-05-03 20:47 52.14331 9.19735 18949 ft 393 kts 169°
2026-05-03 20:47 52.11697 9.20876 18976 ft 393 kts 169°
2026-05-03 20:47 52.09067 9.21997 18970 ft 392 kts 170°
2026-05-03 20:47 52.06399 9.22894 18958 ft 391 kts 174°
2026-05-03 20:48 52.03720 9.23497 18954 ft 389 kts 177°
2026-05-03 20:48 52.01017 9.23809 18943 ft 387 kts 181°
2026-05-03 20:48 51.98329 9.23939 18950 ft 387 kts 181°
2026-05-03 20:48 51.95645 9.24070 18954 ft 387 kts 181°
2026-05-03 20:49 51.92958 9.24199 18947 ft 387 kts 181°
2026-05-03 20:49 51.90267 9.24329 18952 ft 387 kts 182°
2026-05-03 20:49 51.87543 9.24461 18954 ft 388 kts 181°
2026-05-03 20:49 51.84786 9.24591 18960 ft 406 kts 181°
2026-05-03 20:50 51.81913 9.24722 18946 ft 420 kts 181°
2026-05-03 20:50 51.78962 9.24862 18945 ft 425 kts 181°
2026-05-03 20:50 51.76007 9.25004 18950 ft 425 kts 181°
2026-05-03 20:50 51.73047 9.25152 18956 ft 426 kts 181°
2026-05-03 20:51 51.70091 9.25297 18953 ft 426 kts 181°
2026-05-03 20:51 51.67128 9.25440 18953 ft 426 kts 181°
2026-05-03 20:51 51.64173 9.25583 18943 ft 426 kts 181°
2026-05-03 20:51 51.61226 9.25727 18952 ft 422 kts 181°
2026-05-03 20:52 51.58373 9.25870 18956 ft 400 kts 181°
2026-05-03 20:52 51.55651 9.26008 18963 ft 388 kts 181°
2026-05-03 20:52 51.52961 9.26137 18960 ft 387 kts 181°
2026-05-03 20:52 51.50279 9.26265 18949 ft 386 kts 181°
2026-05-03 20:53 51.47601 9.26392 18937 ft 386 kts 181°
2026-05-03 20:53 51.44913 9.26519 18940 ft 386 kts 181°
2026-05-03 20:53 51.42227 9.26646 18955 ft 386 kts 181°
2026-05-03 20:53 51.39547 9.26771 18981 ft 386 kts 181°
2026-05-03 20:54 51.36869 9.26895 18968 ft 385 kts 181°
2026-05-03 20:54 51.31506 9.27147 18971 ft 386 kts 181°
2026-05-03 20:54 51.28825 9.27272 18973 ft 386 kts 181°
2026-05-03 20:55 51.26142 9.27396 18981 ft 386 kts 181°
2026-05-03 20:55 51.23461 9.27519 18976 ft 386 kts 181°
2026-05-03 20:55 51.20783 9.27643 18986 ft 386 kts 181°
2026-05-03 20:55 51.18097 9.27768 18981 ft 386 kts 181°
2026-05-03 20:56 51.15381 9.27894 18963 ft 386 kts 181°
2026-05-03 20:56 51.12706 9.28020 18973 ft 386 kts 181°